Powrót do katalogu

CZ-6A DEB

AktywnyPO
NORAD 61481·DEBRIS·🇨🇳 China

Wystrzelony Aug 6, 2024 z Taiyuan Satellite Launch Center

Loading…

Następne Przeloty (najbliższe 24 godziny)

TLE

ŚwieżeSource: Space-Track

Epoka: Sep 14, 2026, 10:42 UTC

1 61481U 24140AAP 26257.44606888  .00001969  00000-0  82424-3 0  9995
2 61481  88.8794 254.3871 0136979 194.3578 165.3705 14.20778682104803

Śledź CZ-6A DEB w czasie rzeczywistym z AllMySat

Download on the App Store